TimeAKDT,TemperatureF,Dew PointF,Humidity,Sea Level PressureIn,VisibilityMPH,Wind Direction,Wind SpeedMPH,Gust SpeedMPH,PrecipitationIn,Events,Conditions,WindDirDegrees,DateUTC
12:53 AM,19.9,12.0,71,30.44,10.0,East,3.5,-,N/A,,Clear,100,2012-10-25 08:53:00
1:53 AM,18.0,12.9,81,30.46,10.0,Calm,Calm,-,N/A,,Clear,0,2012-10-25 09:53:00
2:53 AM,17.1,10.9,77,30.47,10.0,SSE,3.5,-,N/A,,Clear,150,2012-10-25 10:53:00
3:53 AM,17.1,10.9,77,30.48,10.0,Calm,Calm,-,N/A,,Clear,0,2012-10-25 11:53:00
4:53 AM,17.1,10.0,74,30.48,10.0,Calm,Calm,-,N/A,,Clear,0,2012-10-25 12:53:00
6:53 AM,17.1,9.0,71,30.48,10.0,Calm,Calm,-,N/A,,Clear,0,2012-10-25 14:53:00
7:53 AM,15.1,9.0,77,30.50,10.0,Calm,Calm,-,N/A,,Clear,0,2012-10-25 15:53:00
8:53 AM,16.0,10.0,77,30.50,10.0,Calm,Calm,-,N/A,,Clear,0,2012-10-25 16:53:00
9:53 AM,15.1,10.0,80,30.50,9.0,Calm,Calm,-,N/A,,Clear,0,2012-10-25 17:53:00
10:53 AM,21.0,12.9,71,30.51,10.0,Calm,Calm,-,N/A,,Clear,0,2012-10-25 18:53:00
11:53 AM,27.0,15.1,61,30.53,10.0,Calm,Calm,-,N/A,,Clear,0,2012-10-25 19:53:00
12:53 PM,30.9,12.9,47,30.52,10.0,NNE,6.9,-,N/A,,Clear,30,2012-10-25 20:53:00
1:53 PM,33.1,10.9,40,30.52,10.0,NE,4.6,-,N/A,,Clear,50,2012-10-25 21:53:00
2:53 PM,34.0,10.9,38,30.51,10.0,NNW,5.8,-,N/A,,Clear,340,2012-10-25 22:53:00
3:53 PM,35.1,10.0,35,30.50,10.0,NNE,4.6,-,N/A,,Clear,20,2012-10-25 23:53:00
4:53 PM,34.0,10.9,38,30.49,10.0,North,3.5,-,N/A,,Clear,360,2012-10-26 00:53:00
5:53 PM,33.1,10.9,40,30.48,10.0,Calm,Calm,-,N/A,,Clear,0,2012-10-26 01:53:00
6:53 PM,30.9,12.0,46,30.48,10.0,Calm,Calm,-,N/A,,Clear,0,2012-10-26 02:53:00
7:53 PM,27.0,12.0,53,30.48,10.0,Calm,Calm,-,N/A,,Clear,0,2012-10-26 03:53:00
8:53 PM,25.0,12.9,60,30.48,10.0,Calm,Calm,-,N/A,,Clear,0,2012-10-26 04:53:00
9:53 PM,21.9,12.9,68,30.47,10.0,Calm,Calm,-,N/A,,Clear,0,2012-10-26 05:53:00
10:53 PM,19.9,12.0,71,30.47,10.0,Calm,Calm,-,N/A,,Partly Cloudy,0,2012-10-26 06:53:00
11:53 PM,19.0,12.0,74,30.48,10.0,East,3.5,-,N/A,,Partly Cloudy,90,2012-10-26 07:53:00